Weather History for KBLF - March, 2013

Change the Weather History Date:

Friday, March 22, 2013

  Actual Average Record
Temperature  
Mean Temperature 28 °F 47 °F  
Max Temperature 43 °F 56 °F 81 °F (2012)
Min Temperature 13 °F 38 °F 12 °F (2002)
Degree Days  
Heating Degree Days 37 18  
Month to date heating degree days 614 468  
Since 1 July heating degree days 4016 3961  
Cooling Degree Days 0 0  
Month to date cooling degree days 0 0  
Year to date cooling degree days 1 0  
Moisture  
Dew Point 9 °F    
Average Humidity 53    
Maximum Humidity 80    
Minimum Humidity 25    
Precipitation  
Precipitation 0.00 in 0.12 in 0.77 in (2010)
Month to date precipitation 2.32 2.48  
Year to date precipitation 9.99 8.14  
Snow  
Snow 0.00 in - - ()
Month to date snowfall 8.2  
Since 1 July snowfall 49.3  
Snow Depth 0.00 in    
Sea Level Pressure  
Sea Level Pressure 30.02 in    
Wind  
Wind Speed 6 mph (West)    
Max Wind Speed 15 mph    
Max Gust Speed 21 mph    
Visibility 10 miles    
Events      
T = Trace of Precipitation, MM = Missing Value Source: NWS Daily Summary

Daily Weather History Graph

Daily Weather History Graph

Search for Another Location

Airport or City:

Trip Planner

Search our weather history database for the weather conditions in past years. The results will help you decide how hot, cold, wet, or windy it might be!

Date:

Astronomy

Mar. 22, 2013 Rise Set
Actual Time 7:25 AM EDT 7:38 PM EDT
Civil Twilight 6:59 AM EDT 8:04 PM EDT
Nautical Twilight 6:28 AM EDT 8:35 PM EDT
Astronomical Twilight 5:57 AM EDT 9:06 PM EDT
Moon 3:09 PM EDT (3/22) 4:19 AM EDT (3/22)
Length of Visible Light 13h 05m
Length of Day
12h 13m
Waxing Gibbous, 77% of the Moon is Illuminated
Mar 22
Waxing Gibbous
Mar 27
Full
Apr 3
Last Quarter
Apr 10
New
Apr 18
First Quarter

Hourly Weather History & Observations

Time (EDT) Temp. Windchill Dew Point Humidity Pressure Visibility Wind Dir Wind Speed Gust Speed Precip Events Conditions
12:52 AM 18.0 °F 11.1 °F 9.0 °F 68% 30.02 in 10.0 mi West 4.6 mph - N/A   Clear
1:52 AM 16.0 °F 10.4 °F 9.0 °F 74% 30.01 in 10.0 mi West 3.5 mph - N/A   Clear
2:52 AM 16.0 °F 8.8 °F 9.0 °F 74% 30.00 in 10.0 mi West 4.6 mph - N/A   Clear
3:52 AM 14.0 °F 5.1 °F 9.0 °F 80% 30.00 in 10.0 mi WSW 5.8 mph - N/A   Clear
4:52 AM 14.0 °F 6.5 °F 8.1 °F 77% 29.99 in 10.0 mi West 4.6 mph - N/A   Clear
5:52 AM 14.0 °F 5.1 °F 7.0 °F 74% 30.00 in 10.0 mi West 5.8 mph - N/A   Clear
6:52 AM 14.0 °F 5.1 °F 7.0 °F 74% 30.02 in 10.0 mi West 5.8 mph - N/A   Clear
7:52 AM 15.1 °F 7.7 °F 7.0 °F 70% 30.04 in 10.0 mi West 4.6 mph - N/A   Clear
8:52 AM 18.0 °F 8.7 °F 7.0 °F 62% 30.06 in 10.0 mi West 6.9 mph - N/A   Clear
9:52 AM 21.9 °F 13.4 °F 8.1 °F 55% 30.07 in 10.0 mi Variable 6.9 mph - N/A   Clear
10:52 AM 25.0 °F 16.3 °F 9.0 °F 51% 30.06 in 10.0 mi WSW 8.1 mph - N/A   Clear
11:52 AM 28.0 °F 20.8 °F 12.0 °F 51% 30.06 in 10.0 mi WSW 6.9 mph - N/A   Clear
12:52 PM 30.9 °F 22.8 °F 10.9 °F 43% 30.04 in 10.0 mi West 9.2 mph - N/A   Clear
1:52 PM 34.0 °F 31.0 °F 10.9 °F 38% 30.01 in 10.0 mi Variable 3.5 mph - N/A   Clear
2:52 PM 37.9 °F 32.1 °F 12.0 °F 35% 29.99 in 10.0 mi WSW 8.1 mph - N/A   Clear
3:52 PM 39.0 °F 32.8 °F 12.0 °F 33% 29.99 in 10.0 mi West 9.2 mph - N/A   Clear
4:52 PM 42.1 °F 35.2 °F 10.9 °F 28% 29.98 in 10.0 mi West 12.7 mph 18.4 mph N/A   Clear
5:52 PM 42.1 °F 38.4 °F 10.0 °F 27% 29.97 in 10.0 mi Variable 5.8 mph - N/A   Clear
7:52 PM 37.9 °F 33.5 °F 8.1 °F 29% 30.00 in 10.0 mi NW 5.8 mph - N/A   Partly Cloudy
8:52 PM 36.0 °F 33.3 °F 9.0 °F 33% 30.02 in 10.0 mi West 3.5 mph - N/A   Scattered Clouds
9:52 PM 36.0 °F - 8.1 °F 31% 30.01 in 10.0 mi Calm Calm - N/A   Mostly Cloudy
10:52 PM 34.0 °F 31.0 °F 9.0 °F 35% 30.02 in 10.0 mi West 3.5 mph - N/A   Mostly Cloudy
11:52 PM 33.1 °F 27.7 °F 10.9 °F 40% 30.03 in 10.0 mi West 5.8 mph - N/A   Overcast